Back to catalog

ASIASAT 5

AliveCommunicationsGEO
NORAD 35696·PAYLOAD·🇸🇭 SH

Launched Aug 11, 2009 from Baikonur Cosmodrome

Loading…

TLE

FreshSource: Space-Track

Epoch: Sep 14, 2026, 22:50 UTC

1 35696U 09042A   26257.95146755 -.00000315  00000-0  00000-0 0  9998
2 35696   0.0055 181.6833 0001718 345.4055 269.8781  1.00273481 62616

Track ASIASAT 5 in real time with AllMySat

Download on the App Store